NR0Q Weather Reports


time (UTC)temp
F
wind
direction
speed
knots
gust
knots
rain 1hr
in
rain 24hr
in
rain mn
in
humidity
%
barometer
mb
20260510191501 63 20 3.5 3.5 0.00 0.06 0.00 65 1020.7
20260510190001 63 15 3.5 3.5 0.01 0.06 0.00 66 1020.7
20260510184501 62 37 0.0 1.7 0.01 0.06 0.00 72 1020.7
20260510183001 62 37 0.0 0.0 0.02 0.06 0.00 72 1020.7
20260510181501 62 224 0.0 1.7 0.02 0.05 0.00 71 1020.7
20260510180001 62 116 0.0 1.7 0.02 0.05 0.00 70 1020.7
20260510174501 61 114 1.7 1.7 0.02 0.05 0.00 72 1020.7
20260510173001 62 347 1.7 1.7 0.01 0.04 0.00 72 1020.7
20260510171501 62 32 0.0 0.0 0.00 0.03 0.00 68 1021.7
20260510170001 62 359 0.0 3.5 0.00 0.03 0.00 64 1020.7
20260510164501 62 5 1.7 3.5 0.00 0.03 0.00 65 1020.7
20260510163001 61 348 9.6 9.6 0.00 0.03 0.00 66
20260510161501 62 348 5.2 7.0 0.00 0.03 0.00 68
20260510160002 62 283 3.5 9.6 0.00 0.03 0.00 66 1018.6
20260510154501 62 306 0.0 5.2 0.00 0.03 0.00 67 1018.6
20260510153001 62 333 5.2 13.0 0.00 0.03 0.00 68 1018.6
20260510151501 63 0 0.0 3.5 0.00 0.03 0.00 70 1018.6
20260510150001 62 332 3.5 3.5 0.00 0.03 0.00 73 1018.6
20260510143001 62 81 3.5 1.7 0.01 0.03 0.00 77 1017.6
20260510141501 61 61 1.7 7.0 0.03 0.03 0.00 78 1017.6
20260510140001 61 335 1.7 3.5 0.03 0.03 0.00 81 1017.6
20260510134501 61 34 1.7 3.5 0.02 0.02 0.00 83 1017.6
20260510133001 61 140 1.7 3.5 0.01 0.01 0.00 82 1018.6
20260510131501 61 55 1.7 3.5 0.00 0.00 0.00 82 1018.6
20260510130001 60 124 1.7 1.7 0.00 0.00 0.00 86 1017.6
20260510124501 59 343 1.7 1.7 0.00 0.00 0.00 89 1017.6
20260510123001 59 253 0.0 1.7 0.00 0.00 0.00 89 1016.6
20260510121501 59 194 1.7 3.5 0.00 0.00 0.00 89 1015.6
20260510120001 58 136 1.7 3.5 0.00 0.00 0.00 89 1015.6
20260510114501 58 119 1.7 3.5 0.00 0.00 0.00 89 1014.6
20260510113001 58 142 1.7 1.7 0.00 0.00 0.00 88 1014.6
20260510111501 59 25 1.7 3.5 0.00 0.00 0.00 86 1014.6
20260510110001 59 106 1.7 5.2 0.00 0.00 0.00 85 1014.6
20260510104501 60 269 1.7 3.5 0.00 0.00 0.00 83 1013.6
20260510103001 61 311 0.0 1.7 0.00 0.00 0.00 81 1013.6
20260510101501 61 128 5.2 5.2 0.00 0.00 0.00 78 1013.6
20260510100001 60 167 1.7 3.5 0.00 0.00 0.00 80 1013.6
20260510094502 59 88 1.7 3.5 0.00 0.00 0.00 84 1013.6
20260510093002 60 348 1.7 1.7 0.00 0.00 0.00 84 1013.6
20260510091501 60 214 0.0 1.7 0.00 0.00 0.00 83 1013.6
20260510090001 61 348 0.0 0.0 0.00 0.00 0.00 81 1013.6
20260510084501 62 54 0.0 0.0 0.00 0.00 0.00 79 1012.5
20260510083001 62 124 0.0 0.0 0.00 0.00 0.00 76 1012.5
20260510081501 64 293 0.0 1.7 0.00 0.00 0.00 73 1011.5
20260510080001 65 135 1.7 0.0 0.00 0.00 0.00 72 1012.5
20260510074501 67 29 0.0 0.0 0.00 0.00 0.00 66 1011.5
20260510073001 68 25 0.0 1.7 0.00 0.00 0.00 63 1012.5
20260510071501 68 252 1.7 1.7 0.00 0.00 0.00 61 1011.5
20260510070001 66 139 9.6 14.8 0.00 0.00 0.00 65 1011.5
20260510064501 67 128 3.5 3.5 0.00 0.00 0.00 65 1012.5
20260510063001 67 285 3.5 5.2 0.00 0.00 0.00 63 1011.5
20260510061501 65 146 11.3 11.3 0.00 0.00 0.00 71 1011.5
20260510060001 64 118 1.7 1.7 0.00 0.00 0.00 74 1013.6
20260510054502 65 142 0.0 0.0 0.00 0.00 0.00 73 1013.6
20260510053001 65 315 1.7 1.7 0.00 0.00 0.00 73 1014.6
20260510051501 65 255 0.0 0.0 0.00 0.00 0.00 71 1013.6
20260510050001 65 315 0.0 0.0 0.00 0.00 0.00 72 1014.6
20260510044501 65 37 0.0 0.0 0.00 0.00 0.00 73 1014.6
20260510043001 64 242 0.0 0.0 0.00 0.00 0.00 75 1014.6
20260510041502 64 297 0.0 0.0 0.00 0.00 0.00 77 1013.6
20260510040001 64 129 0.0 0.0 0.00 0.00 0.00 77 1012.5
20260510034501 64 178 0.0 0.0 0.00 0.00 0.00 75 1012.5
20260510033001 64 315 0.0 0.0 0.00 0.00 0.00 74 1012.5
20260510031501 64 141 0.0 0.0 0.00 0.00 0.00 73 1012.5
20260510030001 65 129 0.0 0.0 0.00 0.00 0.00 71 1012.5
20260510024501 66 95 1.7 1.7 0.00 0.00 0.00 71 1012.5
20260510023001 66 315 0.0 0.0 0.00 0.00 0.00 69 1011.5
20260510021501 67 129 0.0 0.0 0.00 0.00 0.00 66 1011.5
20260510014501 70 39 0.0 0.0 0.00 0.00 0.00 54 1010.5
20260510013001 72 84 1.7 0.0 0.00 0.00 0.00 52 1009.5
20260510011501 75 230 0.0 0.0 0.00 0.00 0.00 45 1009.5
20260510010001 76 333 1.7 0.0 0.00 0.00 0.00 39 1009.5
20260510004501 78 240 0.0 0.0 0.00 0.00 0.00 36 1009.5
20260510003003 79 151 1.7 3.5 0.00 0.00 0.00 36 1009.5
20260510001501 80 18 3.5 3.5 0.00 0.01 0.00 34 1009.5
20260510000001 80 164 3.5 7.0 0.00 0.01 0.00 32 1009.5
20260509234501 80 91 0.0 5.2 0.00 0.03 0.00 33 1009.5
20260509233001 81 168 3.5 7.0 0.00 0.10 0.00 32 1009.5
20260509231501 81 139 3.5 11.3 0.00 0.18 0.00 30 1009.5
20260509230001 82 102 1.7 3.5 0.00 0.18 0.00 27 1009.5
20260509224501 82 126 7.0 7.0 0.00 0.23 0.00 29 1009.5
20260509223001 82 124 7.0 7.0 0.00 0.45 0.00 27 1009.5
20260509221501 82 158 5.2 7.0 0.00 0.66 0.00 29 1009.5
20260509220001 82 149 0.0 3.5 0.00 0.66 0.00 28 1009.5
20260509214502 82 116 7.0 9.6 0.00 0.66 0.00 28 1009.5
20260509213001 82 134 1.7 7.0 0.00 0.66 0.00 28 1010.5
20260509211501 82 237 1.7 1.7 0.00 0.66 0.00 27 1010.5
20260509210001 82 79 1.7 5.2 0.00 0.66 0.00 28 1010.5
20260509204502 82 201 3.5 3.5 0.00 0.66 0.00 33 1010.5
20260509203001 82 175 3.5 5.2 0.00 0.66 0.00 34 1010.5
20260509201501 82 206 1.7 3.5 0.00 0.66 0.00 30 1010.5
20260509200001 82 201 1.7 1.7 0.00 0.66 0.00 31 1011.5
20260509194501 82 112 1.7 1.7 0.00 0.66 0.00 34 1011.5